Find Deimos-1

NORAD ID: 35681 Int'l Des: 2009-041 Owner: DEIMOS Country: E operational
LEOCIRCULARRETROGRADESSO

实时位置

正在加载3D地球...

关于 Deimos-1

正在加载描述...

即将过境

Passes for default location (London). Set your location on the main map for personalized predictions.

高度历史

Loading altitude history...

两行轨道根数

1 35681U 09041A 26104.83448110 .00000593 00000-0 94877-4 0 9995
2 35681 97.7321 264.8354 0002519 63.4696 296.6772 14.75172055897546
Epoch: Apr 14, 2026 • Age: 6 hours

当前状态

高度 649.1 km
速度 7.54 km/s
星下点 35.41°N, 136.11°W
发射日期 Jul 29, 2009
运行时间 16.7 years
类型 other

技术详情

分类 Payload
质量 90.00 kg
干质量 90.00 kg
总质量 90.00 kg
长度 1.00 m
直径 1.00 m
跨度 1.00 m
形状 Hex Cyl
制造商 SSTLA
平台类型 SSTL-100
阶段状态 Renamed
所有者/国家 DEIMOS/E

Most Searched